GFSFLT1_925_spd_111.txt.gz
Wind_Speed
8 3 4 6 7 9 9 10 10 10 13 17 23 26 27 27 27 27 27 28 30 28 25 24 26 27 28 22 23 23 20 19
3 2 4 7 9 11 12 12 11 11 12 14 19 23 26 27 30 28 28 28 27 30 29 27 29 29 30 29 23 22 22 17
4 4 7 9 10 12 14 14 14 13 13 14 17 23 22 28 28 29 31 28 29 31 32 31 32 31 30 30 29 21 20 21
2 5 8 10 12 13 15 16 17 16 17 17 18 21 27 26 27 29 29 32 33 33 34 31 30 31 30 33 31 28 21 21
5 7 10 12 12 13 15 16 18 19 19 19 19 21 24 26 27 29 30 32 33 35 34 37 32 33 30 32 31 29 23 20
8 10 14 15 16 16 17 18 18 19 20 20 22 23 24 27 31 30 30 30 34 35 37 35 36 35 33 31 30 31 29 23
10 12 15 16 17 18 19 19 20 21 21 21 22 26 27 28 29 32 28 30 29 34 35 38 38 34 34 33 34 35 33 28
10 12 15 19 21 21 22 22 24 24 24 24 25 26 28 31 32 32 33 27 27 30 37 36 37 37 34 35 35 30 28 29
11 13 16 18 20 21 23 24 27 27 27 27 27 27 28 31 33 35 34 31 32 30 35 36 36 36 35 34 34 34 41 35
13 14 16 18 20 22 22 23 26 26 27 29 29 28 29 32 35 37 39 38 31 30 33 36 35 34 33 32 31 32 32 31
13 13 19 20 22 23 24 24 26 28 28 28 28 32 34 35 36 39 42 39 37 30 30 34 34 33 33 34 30 28 24 22
11 12 18 19 22 24 25 26 28 29 30 33 32 33 32 31 34 38 40 39 36 30 30 31 33 31 37 34 33 28 28 23
11 13 18 20 22 23 24 25 27 30 32 32 33 31 29 24 25 13 26 33 31 32 26 28 31 33 36 37 34 31 28 24
13 13 16 21 22 23 24 25 27 32 36 31 29 26 27 27 26 14 19 21 24 28 24 24 29 32 36 37 34 34 33 27
12 13 15 21 22 22 24 26 28 29 29 29 29 32 28 23 20 17 13 11 7 17 22 27 29 31 31 32 29 26 25 22
12 13 14 20 22 24 26 27 28 29 26 29 34 32 30 30 24 27 22 19 18 13 12 18 22 26 27 29 29 25 26 25
12 14 17 19 24 25 25 26 29 28 26 28 30 32 30 28 32 37 35 32 26 22 19 17 13 17 24 22 24 26 27 23
12 12 16 20 22 22 23 24 24 26 28 31 33 33 36 35 32 41 36 36 39 37 34 28 26 19 16 28 31 31 28 26
10 14 17 19 19 21 21 22 25 28 31 32 32 31 33 34 36 36 34 34 41 41 38 32 36 32 31 31 33 30 28 24

GFSFLT1_925_spd_114.txt.gz
Wind_Speed
17 13 13 9 9 7 6 7 9 11 13 14 17 21 22 25 25 28 26 30 35 31 30 31 30 29 24 20 26 25 23 24
18 14 12 9 8 9 10 8 9 11 12 15 16 14 18 21 27 29 28 30 32 36 33 30 33 35 33 30 22 26 21 20
13 14 13 11 8 10 11 13 14 14 14 17 19 23 23 26 27 20 36 31 34 36 35 30 30 30 32 30 25 22 21 23
12 8 12 7 7 10 13 14 15 16 16 17 18 20 21 21 22 26 24 27 32 36 35 35 31 30 29 33 32 27 22 26
9 8 10 8 12 13 15 16 17 16 18 19 19 19 20 22 27 28 29 26 41 35 38 36 35 30 31 33 33 34 27 23
9 9 7 9 13 15 16 17 18 19 19 18 19 20 21 24 28 32 32 31 28 39 39 36 35 32 33 34 34 34 35 30
7 8 11 13 15 16 16 17 19 21 22 21 20 21 23 25 26 28 31 32 31 29 41 41 39 39 35 34 35 35 37 33
7 10 12 16 17 18 19 20 21 23 24 23 23 24 26 27 27 27 30 33 33 34 33 41 41 39 38 36 36 36 38 35
9 10 14 17 19 22 22 23 25 27 26 26 25 25 25 27 28 29 31 34 35 34 31 38 38 37 42 37 36 35 37 37
10 12 16 18 20 22 23 24 25 27 28 28 28 29 28 29 31 32 34 36 39 39 38 32 35 37 42 40 39 37 33 37
12 11 16 18 20 20 21 22 23 26 28 28 29 31 30 30 31 34 34 38 40 40 40 34 37 36 38 39 38 38 36 31
12 12 17 20 21 22 22 23 25 27 27 29 30 29 29 28 29 30 33 37 44 42 41 38 38 36 37 36 36 34 36 33
11 13 18 20 22 23 22 24 26 27 29 28 29 28 28 26 26 28 30 36 32 40 39 39 40 41 38 37 36 32 34 33
11 13 16 18 21 22 23 25 28 30 30 28 28 29 31 27 26 28 26 25 22 16 32 35 37 36 35 34 36 33 33 32
12 12 15 19 21 22 24 25 27 30 29 27 28 30 31 28 25 26 24 26 20 14 15 30 35 34 30 33 30 29 29 30
11 12 12 18 21 22 23 24 28 30 27 27 28 29 30 31 28 30 31 34 31 22 23 21 9 7 12 24 30 28 29 24
10 12 17 19 21 21 22 25 27 27 25 27 28 32 32 32 32 34 32 39 43 40 43 36 33 28 7 25 29 24 30 34
11 11 14 17 20 22 23 25 26 25 24 29 30 29 31 34 34 36 38 35 43 41 41 40 40 40 33 25 26 31 29 25
9 12 13 18 21 23 22 23 25 26 28 30 31 31 30 33 36 37 37 40 42 35 42 42 43 42 40 39 35 32 33 29

GFSFLT1_925_spd_117.txt.gz
Wind_Speed
21 27 25 26 24 23 21 19 20 19 19 18 14 11 9 14 17 23 26 30 32 37 39 38 35 31 22 33 36 35 34 30
23 26 25 26 24 24 24 23 21 19 24 25 26 26 24 19 20 16 18 28 36 38 38 38 39 41 42 27 32 34 32 30
17 22 24 25 24 21 21 20 20 21 20 20 21 23 15 24 21 18 15 20 24 36 37 39 42 38 41 42 33 26 27 31
16 15 24 27 26 23 21 21 19 19 22 21 21 22 23 23 27 27 24 24 23 18 37 39 41 35 31 41 38 33 25 31
16 12 21 24 24 23 23 19 18 19 21 23 23 16 17 23 30 35 36 35 34 30 25 30 42 39 37 32 36 35 30 22
15 13 22 27 25 24 22 19 19 21 23 22 23 22 21 22 23 29 36 38 38 38 33 27 30 40 38 37 43 38 37 27
14 22 24 27 26 25 21 21 21 24 24 22 20 22 25 26 28 28 27 31 39 38 34 35 30 36 39 39 39 36 32 30
13 13 16 22 26 24 19 21 20 22 22 20 20 20 23 25 24 26 30 31 31 36 33 29 31 29 37 37 37 37 35 34
13 12 21 22 21 21 21 22 22 23 24 23 21 21 22 24 24 25 29 31 34 36 37 36 36 36 32 39 37 36 34 37
17 18 20 19 19 20 22 23 22 24 26 26 25 23 23 26 28 29 30 32 35 36 37 38 35 38 34 38 37 35 34 35
10 10 14 16 18 18 21 22 23 26 27 27 28 29 29 29 30 30 31 34 35 39 39 38 38 35 39 38 38 37 36 34
9 11 15 17 18 21 22 23 25 27 26 29 29 29 30 30 30 30 30 32 31 35 37 38 39 38 40 37 39 35 37 36
11 14 18 20 22 24 25 26 25 26 26 27 27 26 27 26 26 28 29 30 29 28 30 37 43 38 37 38 40 37 40 37
12 14 17 20 23 24 24 26 26 25 27 27 26 26 26 26 26 26 25 26 24 21 22 23 30 34 35 39 39 37 37 39
12 11 15 19 21 22 23 24 25 25 26 26 26 28 28 27 26 27 27 27 25 23 18 16 8 12 25 35 41 41 40 40
11 12 13 18 19 21 23 22 25 27 28 28 30 29 28 27 26 26 27 27 28 32 32 27 14 13 6 18 28 36 35 29
12 12 16 18 20 20 19 23 27 29 28 30 32 29 26 25 28 33 34 35 30 36 42 29 30 33 22 2 9 19 17 20
9 10 13 15 17 20 23 25 29 28 30 32 30 28 26 29 31 32 33 32 32 36 40 35 42 42 49 39 24 33 37 27
6 11 14 16 19 21 23 27 27 28 30 30 33 31 30 33 33 33 34 34 35 39 43 42 43 50 50 50 42 44 46 40

GFSFLT1_925_spd_123.txt.gz
Wind_Speed
19 23 23 24 24 23 21 19 16 12 9 6 4 6 11 9 8 8 10 10 8 18 35 42 36 36 32 34 34 32 32 33
21 22 22 25 27 25 23 20 19 16 16 14 10 14 10 12 10 10 10 10 12 13 7 16 22 46 35 33 33 31 28 27
14 20 26 29 27 29 27 24 22 21 17 14 7 11 6 11 9 14 13 16 15 14 12 11 14 29 36 45 36 25 21 22
13 19 22 27 30 29 28 26 22 24 19 17 15 9 14 11 22 21 21 20 18 17 13 13 15 14 22 22 19 29 16 16
13 16 20 22 22 27 29 27 28 25 25 23 22 16 11 15 24 27 26 23 20 17 17 17 18 19 18 18 20 25 30 24
11 12 15 18 23 24 26 27 29 30 29 27 23 20 17 20 24 27 27 26 23 22 18 18 19 20 20 19 21 23 25 33
13 14 14 15 20 25 25 29 28 32 30 27 23 22 24 22 23 22 23 24 28 25 23 24 23 22 21 21 20 23 20 29
9 10 16 19 20 24 27 28 28 30 26 23 25 25 22 17 18 19 22 23 22 24 27 28 23 20 20 21 25 27 29 23
8 12 14 21 24 21 23 22 20 22 23 26 24 21 19 19 17 20 22 22 24 25 25 26 27 26 26 24 23 24 25 30
3 6 10 13 17 21 25 24 22 22 24 22 21 22 21 21 21 20 21 22 23 24 26 24 25 28 28 28 27 27 24 26
3 5 11 10 12 14 14 15 14 18 20 19 20 21 21 21 21 21 22 22 24 24 24 25 25 24 25 26 28 27 28 27
5 8 7 7 11 13 13 14 17 22 24 22 20 21 21 22 21 21 22 23 23 22 23 24 26 26 24 25 27 29 31 29
5 9 12 14 17 17 19 21 22 24 22 22 21 23 25 23 23 24 25 24 24 22 21 23 23 22 22 24 28 28 28 29
4 4 11 14 16 18 20 20 20 19 19 19 22 23 26 25 26 27 27 28 27 27 25 25 26 24 24 23 26 30 33 36
5 7 10 13 14 15 15 18 20 19 20 20 19 24 26 29 29 30 31 31 31 30 29 29 30 29 27 27 27 30 32 33
5 6 8 11 12 14 16 19 20 18 16 19 27 29 29 29 31 33 34 34 33 33 33 32 33 28 31 33 24 28 31 26
5 6 9 7 8 9 13 13 13 14 19 24 27 30 32 32 33 31 31 33 35 38 40 34 35 34 36 34 26 17 22 21
4 4 3 4 6 9 12 17 17 21 26 24 25 30 31 32 33 37 37 37 38 40 40 37 37 44 41 35 37 34 30 35
4 2 1 4 8 11 14 17 22 24 27 24 29 31 31 34 35 35 36 37 37 36 38 40 40 48 48 40 35 36 35 43

GFSFLT1_925_spd_129.txt.gz
Wind_Speed
18 21 22 23 23 24 24 24 25 22 17 8 8 13 12 11 11 10 10 11 9 8 8 9 11 13 16 26 37 36 33 21
17 20 21 22 25 25 25 25 26 25 22 16 10 12 10 10 12 15 15 15 14 12 12 13 10 10 12 24 22 22 24 21
14 17 20 23 22 23 22 23 23 22 19 16 9 11 7 7 12 15 16 17 17 13 12 11 10 11 11 12 18 23 28 30
9 13 16 17 20 20 21 20 21 21 20 17 15 8 10 10 16 15 17 15 15 15 14 13 12 11 12 13 13 16 18 19
6 7 10 13 14 15 17 17 20 20 20 18 18 14 14 15 16 17 17 14 16 14 14 14 13 12 14 14 13 15 14 17
4 9 11 13 14 16 15 17 18 20 19 17 16 15 15 16 17 20 17 15 14 15 14 14 15 16 15 16 17 16 16 19
5 7 8 12 14 16 15 17 16 17 17 16 16 16 17 18 19 18 20 19 18 15 16 17 16 15 16 19 20 18 17 19
3 8 12 14 16 18 19 19 18 19 19 19 16 16 15 16 17 18 22 21 20 20 21 19 18 19 19 20 23 24 21 20
5 8 11 13 16 19 20 21 20 21 20 19 18 18 17 16 18 18 18 20 21 22 22 22 21 21 20 20 23 25 24 24
5 8 10 13 17 17 17 19 20 20 21 20 19 19 20 19 19 18 19 19 21 21 22 23 22 23 23 23 23 24 26 27
4 6 9 11 12 13 15 17 19 19 19 19 19 19 18 18 17 18 19 19 19 20 22 23 24 23 22 23 23 22 25 26
5 6 8 10 11 13 15 15 16 19 19 19 19 19 18 19 18 20 20 20 21 20 21 23 24 24 23 24 24 25 24 24
5 6 8 10 12 13 14 14 15 16 16 17 17 18 18 19 18 19 19 20 21 22 21 20 22 21 22 23 24 23 25 26
6 6 9 9 10 12 13 13 14 14 15 17 17 18 19 18 19 20 20 20 21 22 21 22 25 24 24 27 25 25 26 27
6 5 6 7 8 10 12 12 13 14 15 15 16 17 17 16 16 19 21 22 23 23 24 24 26 27 27 27 21 23 22 23
6 5 6 5 6 9 10 11 13 14 14 15 15 15 15 15 16 18 20 23 26 27 27 27 28 30 33 33 28 28 27 25
7 6 7 5 8 10 10 12 13 13 14 14 16 15 17 19 20 22 24 25 26 28 30 30 32 36 37 34 32 31 32 33
7 7 6 6 8 9 11 12 12 14 15 16 18 18 21 25 21 21 22 25 25 28 32 32 33 42 42 35 32 32 32 35
9 9 7 7 8 9 11 13 14 15 17 18 19 23 22 21 23 24 23 22 22 26 29 32 34 43 43 39 34 33 32 36

GFSFLT1_925_spd_132.txt.gz
Wind_Speed
10 12 13 15 16 17 18 19 20 17 15 9 7 8 8 8 9 11 12 11 12 11 9 9 9 10 12 17 21 21 19 17
10 11 12 13 16 17 20 20 21 19 18 16 8 12 9 9 10 13 13 13 12 11 10 11 10 10 12 15 17 18 24 27
9 10 11 14 15 17 18 20 20 19 16 15 12 12 7 7 11 13 14 15 14 12 12 12 11 12 12 12 12 12 15 19
7 9 11 13 15 17 17 18 18 19 18 15 14 10 11 9 14 13 16 15 14 13 12 12 12 12 13 15 13 13 13 14
5 6 9 11 11 12 14 15 17 18 18 16 16 14 14 14 14 15 16 14 15 15 14 13 13 14 13 16 15 15 14 17
5 6 7 10 12 13 13 14 14 16 16 16 15 14 14 15 16 18 16 15 14 15 15 16 16 16 15 16 19 17 17 19
5 5 7 10 12 12 12 14 15 16 16 16 16 16 17 17 18 18 18 18 16 15 16 18 16 16 16 18 19 20 19 19
3 4 6 9 11 12 13 15 15 16 16 16 15 16 16 16 17 17 20 19 18 19 21 19 19 19 19 21 22 22 21 21
4 4 6 8 10 12 13 14 15 16 16 16 15 15 15 15 16 17 17 18 19 20 21 21 19 19 19 19 21 23 21 23
5 4 6 8 10 11 12 13 14 15 15 16 16 15 16 17 16 17 17 17 19 20 20 21 20 20 19 19 20 21 21 24
5 4 5 7 8 9 10 12 13 13 14 15 15 16 16 16 16 17 18 19 19 20 21 21 21 21 21 20 20 19 21 23
7 5 4 6 6 7 8 10 11 13 14 15 16 17 17 17 17 18 19 19 20 20 20 21 22 23 22 22 22 23 23 23
8 7 5 4 5 5 7 8 10 12 12 13 15 15 17 18 18 19 19 19 19 19 20 21 23 24 23 23 22 21 22 24
9 8 6 4 5 7 8 9 9 10 10 12 13 14 15 16 17 18 19 20 20 20 20 21 23 25 25 25 22 22 22 21
9 9 7 6 6 7 8 9 10 10 10 11 12 15 15 15 15 16 18 19 20 21 22 23 25 26 25 25 22 24 25 24
8 8 8 6 6 6 8 9 10 10 11 12 13 13 14 15 16 17 17 18 20 21 23 26 30 31 33 29 24 26 28 32
8 8 9 7 7 8 7 9 9 9 10 11 11 12 14 16 16 16 17 18 20 23 25 27 32 35 36 32 28 27 30 33
9 9 10 9 8 8 8 8 8 10 10 11 13 13 15 16 15 15 17 18 19 22 28 30 32 38 37 33 29 26 31 34
10 12 12 10 9 9 9 9 9 10 11 12 13 14 14 15 16 16 17 18 19 22 25 28 28 35 37 35 28 28 29 33

GFSFLT1_925_spd_135.txt.gz
Wind_Speed
6 8 9 12 13 14 15 17 19 15 13 10 7 9 8 9 10 13 15 14 15 15 12 13 15 14 14 12 11 11 14 18
6 7 10 11 14 15 16 17 19 17 16 15 13 12 10 10 11 13 14 16 16 16 14 15 15 15 16 16 14 13 15 14
7 7 8 9 11 13 15 17 18 19 16 15 14 12 11 9 12 13 14 17 16 15 15 15 16 17 17 16 15 16 15 14
8 7 5 6 8 11 13 14 15 16 16 14 15 12 12 13 16 15 18 17 16 16 16 16 16 15 15 16 16 17 19 16
7 6 5 7 8 9 10 12 14 15 16 15 15 14 15 15 16 16 18 16 17 16 17 17 17 17 16 15 15 16 17 21
7 6 6 8 8 8 9 10 13 14 14 14 14 15 15 15 17 19 17 17 16 17 17 18 19 19 18 18 17 16 16 19
8 6 5 7 8 9 10 11 13 14 15 15 15 15 15 17 18 18 18 18 18 17 19 20 19 19 19 20 20 19 18 19
7 5 6 6 8 9 9 11 13 14 14 14 14 14 14 15 17 17 19 19 19 20 22 21 20 20 21 21 21 21 20 21
7 5 5 6 7 8 9 10 10 12 13 13 14 14 14 14 15 16 16 17 18 20 20 20 20 20 20 20 20 21 20 22
8 8 7 6 6 8 8 8 9 11 12 12 13 14 14 15 15 15 16 16 18 19 19 19 19 20 20 20 21 21 22 23
9 8 7 6 6 7 7 6 7 9 10 11 12 14 15 15 15 16 17 18 18 19 19 19 19 20 21 20 20 21 23 23
10 8 8 6 6 6 5 5 6 8 9 10 12 13 13 14 15 16 17 18 19 20 21 21 22 22 21 20 20 19 20 22
11 9 9 8 6 5 4 4 6 7 7 8 10 11 12 13 15 16 17 19 20 21 22 23 24 25 24 22 20 20 21 23
11 11 9 7 6 6 5 5 6 6 7 7 9 11 12 13 14 15 16 18 20 21 22 24 24 25 25 23 19 21 21 22
12 10 8 7 6 6 6 6 6 7 7 9 11 12 12 13 13 15 16 17 19 20 21 22 23 25 26 24 21 22 23 24
11 9 8 9 7 7 7 7 7 7 8 10 10 10 11 12 12 13 15 16 18 19 20 21 25 26 28 27 22 24 24 26
10 8 9 8 7 7 7 7 7 7 9 11 10 10 11 12 13 14 14 15 16 18 20 20 25 27 30 26 23 23 26 29
10 10 11 9 8 7 8 8 8 9 10 11 10 11 11 12 12 14 15 16 16 18 22 24 25 32 33 26 23 23 25 29
11 13 12 11 9 9 9 9 9 10 10 11 11 11 12 11 13 14 16 16 18 20 21 24 23 30 34 32 24 24 25 28

GFSFLT1_925_spd_138.txt.gz
Wind_Speed
8 6 9 12 13 14 15 17 18 16 16 15 16 14 13 14 16 18 17 21 20 19 18 18 19 19 20 21 20 18 16 17
8 6 8 10 12 13 14 15 16 17 16 16 15 14 14 12 16 15 18 21 21 20 21 20 20 19 19 18 18 19 17 14
7 5 7 8 10 12 13 15 16 17 14 13 13 12 12 14 15 15 19 20 20 20 20 20 21 22 21 22 20 20 19 17
10 6 2 5 8 10 11 14 15 17 17 16 16 14 14 18 18 18 21 19 19 20 19 19 21 20 20 21 21 20 19 21
12 10 7 6 7 8 10 12 14 15 17 17 17 16 14 17 18 21 19 20 20 21 21 22 22 21 20 21 20 19 18 18
10 8 11 7 6 8 9 11 13 14 15 16 16 15 15 15 18 18 20 20 21 22 25 24 24 21 20 21 21 19 17 15
12 12 10 9 6 7 8 10 11 12 13 14 15 15 15 16 19 18 20 20 21 23 24 23 21 21 22 21 20 19 19 18
13 11 12 9 6 6 8 9 11 11 12 14 15 15 15 16 17 18 19 20 21 22 24 23 21 22 21 21 20 19 19 18
12 12 12 11 7 6 7 9 10 10 12 13 14 15 14 15 16 16 17 18 19 21 22 22 22 22 22 22 21 20 20 20
13 14 13 12 11 7 7 9 9 10 11 11 12 13 14 14 15 16 17 18 18 20 22 23 23 23 24 23 21 21 21 21
13 13 15 12 12 9 7 8 10 9 9 10 10 11 11 12 13 15 16 16 18 19 21 23 24 27 27 25 24 22 23 23
14 15 17 15 11 11 8 7 9 8 8 8 8 9 9 10 12 14 16 16 18 20 21 23 24 26 28 26 24 22 23 24
13 16 19 15 12 11 7 7 8 7 6 7 7 7 8 10 12 13 15 16 18 19 21 24 25 27 28 26 25 24 25 25
12 13 14 14 11 9 9 7 6 8 7 7 8 9 10 12 12 13 14 16 18 19 21 24 24 29 28 28 24 26 26 26
9 11 12 13 12 10 10 8 7 8 8 9 9 9 10 11 12 13 14 16 18 20 21 24 27 30 29 29 24 25 25 28
12 10 11 13 12 11 10 9 8 8 9 9 9 9 10 11 13 13 15 17 19 20 21 23 30 30 32 27 23 23 26 28
13 12 14 14 12 11 10 9 8 9 10 10 9 9 12 13 13 14 15 16 18 23 25 24 30 30 29 23 22 22 24 27
12 11 14 14 12 12 12 10 10 10 11 10 10 11 14 14 13 15 17 17 19 22 26 26 26 31 30 24 21 22 24 27
12 16 17 14 13 13 12 11 11 11 11 10 11 13 13 13 14 15 14 15 18 21 24 25 24 28 30 27 20 23 25 26

GFSFLT1_925_spd_141.txt.gz
Wind_Speed
22 22 20 19 15 13 14 15 15 16 16 13 16 18 18 21 19 22 23 22 22 22 21 20 21 20 20 20 19 15 15 17
26 25 20 18 14 13 14 15 15 14 18 16 17 18 18 20 20 21 24 21 23 23 21 21 23 20 19 19 22 20 16 19
19 22 17 17 13 13 14 14 16 16 15 13 12 14 16 17 17 21 21 23 21 19 21 21 21 22 21 21 23 20 12 18
14 18 20 18 13 11 13 14 15 16 15 15 13 12 16 21 21 20 21 20 21 23 23 23 23 21 21 20 20 21 16 15
12 17 21 19 13 11 13 13 14 15 15 17 18 19 16 17 18 16 18 19 22 24 24 24 23 20 20 18 17 15 17 18
14 17 24 21 15 12 14 11 13 13 15 17 17 17 16 15 17 18 19 20 22 26 26 24 22 19 18 17 16 15 13 15
15 23 27 22 17 13 13 12 13 13 14 15 16 17 16 18 19 19 20 20 21 26 25 22 21 21 20 19 17 15 14 14
16 14 19 23 18 14 14 12 14 13 13 14 15 15 16 18 18 19 19 19 21 24 23 22 22 21 21 20 19 17 17 16
14 15 20 23 19 16 15 13 12 12 13 13 13 14 15 16 16 18 19 20 20 21 23 22 23 23 22 20 18 18 18 17
12 18 21 24 21 16 14 12 10 11 12 12 12 13 14 14 15 16 16 18 17 20 21 22 25 25 23 23 20 20 19 18
13 18 20 25 21 17 14 11 10 10 10 11 12 12 12 12 13 15 16 16 18 19 21 21 24 25 24 26 23 23 22 22
6 12 20 22 19 16 15 12 9 9 8 8 10 11 11 11 12 14 14 15 15 18 20 20 25 25 25 27 23 25 24 24
15 16 22 23 20 16 14 12 9 7 10 11 12 13 12 14 13 13 12 15 15 16 18 20 25 23 25 25 22 26 26 25
13 15 16 13 18 17 15 13 12 12 12 13 12 13 13 14 14 13 12 13 15 17 20 22 24 24 22 24 22 24 24 26
15 12 15 18 22 20 16 13 13 12 11 12 12 11 11 13 12 13 13 15 15 17 22 24 22 24 23 23 23 24 24 24
17 14 15 21 21 21 19 16 14 11 11 12 9 9 11 12 13 13 14 17 19 18 21 27 24 26 24 24 21 24 25 26
16 16 21 19 20 23 19 16 12 8 11 10 8 12 14 13 13 15 16 18 22 23 24 28 28 27 22 22 25 25 26 30
15 15 17 22 23 24 20 17 13 12 13 11 12 14 14 15 16 16 18 20 22 25 26 28 30 28 26 21 21 27 28 29
13 20 22 25 26 23 20 14 14 15 14 13 14 14 15 14 14 15 14 16 21 23 25 27 28 29 26 25 22 26 28 30

GFSFLT1_925_spd_147.txt.gz
Wind_Speed
18 19 19 18 17 15 15 15 17 21 22 20 16 15 15 14 14 15 14 15 15 16 16 18 18 18 18 18 17 15 11 21
18 20 19 18 16 14 12 13 14 18 19 17 13 15 14 14 15 15 16 17 18 18 18 17 17 18 19 20 21 19 13 22
13 20 19 16 16 14 13 12 10 11 10 13 10 13 14 13 13 15 16 16 16 17 17 17 18 18 18 19 21 20 12 20
12 14 19 18 16 15 15 12 12 12 13 15 17 14 12 13 15 15 17 17 17 16 15 15 16 16 17 16 18 18 14 13
12 14 17 18 17 17 16 14 14 13 12 12 13 14 14 12 12 13 15 16 16 15 15 14 13 13 15 14 14 14 15 13
13 15 21 21 19 18 17 16 14 13 13 13 17 18 15 12 12 13 15 16 16 15 14 14 13 12 12 12 14 14 12 11
12 18 24 22 19 17 15 15 15 13 14 14 17 16 14 14 13 14 15 15 16 16 16 15 14 13 13 12 11 11 12 11
13 13 18 21 21 19 16 15 16 13 12 14 14 15 14 13 13 12 13 14 16 17 15 15 15 14 12 11 10 11 11 11
12 14 18 22 22 17 16 15 15 12 11 13 12 12 13 12 12 12 12 12 13 12 12 13 14 13 12 12 12 11 10 10
14 20 27 27 30 30 28 22 20 15 13 11 11 11 11 12 11 11 11 11 10 11 11 12 12 11 14 15 15 14 12 11
16 18 22 22 25 25 22 21 20 18 15 12 11 10 10 10 10 11 9 10 10 12 12 10 10 11 12 12 16 15 16 15
14 16 21 24 26 25 22 19 17 16 14 13 12 11 10 10 10 9 8 8 11 12 12 10 12 12 10 12 12 15 16 17
13 19 22 22 24 23 22 21 19 17 15 14 12 12 10 10 8 8 6 9 9 10 11 11 12 13 15 15 15 16 15 15
10 15 19 21 22 21 23 22 19 17 15 15 13 12 10 10 8 7 7 8 10 10 12 12 14 11 12 14 17 16 17 17
12 12 17 20 21 20 20 21 22 21 18 16 14 13 11 9 8 8 9 9 10 11 12 13 12 15 11 11 14 16 19 17
15 14 13 19 21 20 22 22 21 20 18 16 15 14 12 10 9 10 11 11 12 13 13 12 12 14 13 13 13 17 18 22
10 12 16 20 22 23 23 23 22 18 17 16 16 15 13 12 12 13 14 14 14 14 16 14 14 12 12 14 14 17 20 22
12 13 17 22 25 28 27 25 22 19 17 17 16 16 16 16 15 15 15 15 14 15 14 14 15 13 12 12 13 15 17 19
10 15 19 22 26 26 28 24 21 19 19 19 18 18 18 17 16 16 16 15 14 13 13 12 11 12 10 10 10 14 15 17

GFSFLT1_925_spd_153.txt.gz
Wind_Speed
13 14 14 16 17 18 19 18 17 16 15 15 15 14 13 14 14 15 15 14 15 14 14 15 14 12 13 15 15 14 12 17
15 14 15 15 15 17 18 19 18 16 11 10 9 11 11 12 13 14 15 14 14 17 14 15 14 14 14 14 14 15 13 20
17 17 16 13 15 16 18 19 19 14 10 10 8 11 11 12 12 13 13 14 16 15 15 15 15 13 15 15 17 14 11 16
18 20 17 16 16 16 18 18 17 14 11 11 13 12 8 6 8 10 13 14 14 15 15 14 14 13 14 14 16 16 13 12
17 20 19 18 16 17 17 17 15 13 13 12 8 7 6 5 7 9 10 12 12 13 14 14 14 12 13 12 15 14 13 12
19 21 20 17 17 16 16 16 16 16 15 13 13 12 11 9 7 8 9 10 12 12 13 12 13 12 12 13 14 14 12 11
17 21 20 19 16 17 19 20 19 18 17 15 12 13 13 11 8 7 8 8 9 11 11 11 12 12 12 12 12 12 11 10
19 20 22 21 22 19 18 17 16 16 15 14 12 11 10 9 7 7 7 5 6 8 8 10 10 11 11 12 12 10 11 10
17 20 24 23 21 19 15 13 14 13 12 14 15 13 10 9 8 7 7 6 5 6 7 9 9 10 10 10 11 9 10 8
18 23 23 23 22 20 18 17 16 14 14 15 13 11 10 10 8 6 7 6 5 5 5 8 8 9 9 8 9 9 8 10
15 19 20 21 19 17 16 15 17 17 15 13 12 11 10 9 7 6 6 6 6 5 6 8 8 8 8 8 9 9 9 10
15 17 18 20 20 19 19 20 20 19 17 14 13 11 10 8 7 6 6 5 6 4 7 8 8 9 9 8 8 9 9 9
10 12 18 21 22 22 21 20 20 19 18 19 15 13 11 9 7 5 5 5 6 5 7 7 7 8 8 8 9 9 10 10
12 14 18 21 22 22 21 22 20 19 17 18 16 13 11 9 7 5 5 5 5 6 7 8 7 6 7 8 9 10 9 10
13 14 19 26 26 26 24 21 20 20 20 18 19 14 12 10 9 7 5 5 7 6 7 8 8 8 7 8 9 10 11 10
13 15 14 20 23 25 25 24 23 22 23 22 19 17 14 11 10 8 7 6 7 7 8 8 8 9 8 8 9 10 11 11
9 12 16 22 25 26 26 26 25 29 27 24 20 17 16 13 11 10 9 8 9 9 9 8 9 9 10 10 9 9 10 11
6 12 16 20 24 26 26 27 30 29 27 23 20 16 18 16 15 12 11 11 11 12 12 12 12 10 8 9 8 9 9 11
5 9 15 19 22 23 24 27 28 28 26 23 20 19 18 18 16 16 15 13 12 11 10 10 9 9 7 5 6 8 10 13